RPC1212 RPLL-RPVI

Flight info

Callsign RPC1212
Flight time 1h 25m
Altitude 8000
Route RPLL VERD2R VERDE W24 TAPER B472 LAMBO LAMB2S RPVI
Aircraft C510/M-V/N

Departure

Time 2026-04-26 15:07
Airport Ninoy Aquino International Airport (RPLL)

Arrival

Time 2026-04-26 16:32
Airport Iloilo International Airport (RPVI)
Time Latitude Longitude Altitude Speed Heading
2026-04-26 14:12 14.50181 121.00203 80 ft 0 kts 239°
2026-04-26 14:59 14.50197 121.00230 80 ft 4 kts 239°
2026-04-26 15:00 14.50211 121.00251 80 ft 1 kts 221°
2026-04-26 15:00 14.50226 121.00261 80 ft 1 kts 210°
2026-04-26 15:00 14.50239 121.00269 80 ft 2 kts 208°
2026-04-26 15:00 14.50253 121.00276 80 ft 3 kts 207°
2026-04-26 15:01 14.50267 121.00281 80 ft 0 kts 194°
2026-04-26 15:01 14.50255 121.00280 80 ft 0 kts 172°
2026-04-26 15:02 14.50246 121.00285 80 ft 0 kts 150°
2026-04-26 15:02 14.50245 121.00285 80 ft 0 kts 150°
2026-04-26 15:02 14.50244 121.00286 80 ft 0 kts 150°
2026-04-26 15:03 14.50217 121.00302 80 ft 13 kts 149°
2026-04-26 15:03 14.50134 121.00337 80 ft 9 kts 195°
2026-04-26 15:03 14.50101 121.00295 80 ft 8 kts 239°
2026-04-26 15:03 14.50065 121.00232 80 ft 11 kts 240°
2026-04-26 15:04 14.50021 121.00151 80 ft 13 kts 240°
2026-04-26 15:04 14.49972 121.00065 80 ft 14 kts 239°
2026-04-26 15:04 14.49945 121.00016 80 ft 0 kts 239°
2026-04-26 15:04 14.49924 120.99980 80 ft 7 kts 231°
2026-04-26 15:05 14.49878 120.99964 80 ft 6 kts 159°
2026-04-26 15:05 14.49872 120.99967 80 ft 0 kts 151°
2026-04-26 15:06 14.49811 121.00009 80 ft 20 kts 125°
2026-04-26 15:06 14.49866 121.00162 80 ft 38 kts 60°
2026-04-26 15:07 14.50555 121.01405 337 ft 141 kts 63°
2026-04-26 15:07 14.51089 121.02299 921 ft 150 kts 60°
2026-04-26 15:07 14.51644 121.03210 1542 ft 153 kts 60°
2026-04-26 15:08 14.52197 121.04116 2227 ft 151 kts 61°
2026-04-26 15:08 14.52829 121.05173 2469 ft 192 kts 61°
2026-04-26 15:08 14.53534 121.06359 2891 ft 192 kts 61°
2026-04-26 15:08 14.54225 121.07529 3281 ft 193 kts 61°
2026-04-26 15:09 14.54924 121.08704 3684 ft 193 kts 61°
2026-04-26 15:09 14.55312 121.09990 4062 ft 187 kts 97°
2026-04-26 15:09 14.54762 121.11136 4461 ft 179 kts 142°
2026-04-26 15:09 14.53711 121.11792 4876 ft 177 kts 153°
2026-04-26 15:10 14.52649 121.12412 5276 ft 177 kts 153°
2026-04-26 15:10 14.51932 121.12833 5542 ft 177 kts 152°
2026-04-26 15:10 14.50527 121.13680 6069 ft 177 kts 153°
2026-04-26 15:10 14.49470 121.14328 6467 ft 176 kts 153°
2026-04-26 15:11 14.48336 121.14759 6859 ft 179 kts 178°
2026-04-26 15:11 14.47089 121.14849 7284 ft 183 kts 179°
2026-04-26 15:11 14.45794 121.14945 7696 ft 188 kts 179°
2026-04-26 15:11 14.44482 121.15054 8000 ft 198 kts 179°
2026-04-26 15:12 14.43031 121.15164 8022 ft 217 kts 179°
2026-04-26 15:12 14.41484 121.15279 8014 ft 231 kts 179°
2026-04-26 15:12 14.39870 121.15397 8012 ft 239 kts 179°
2026-04-26 15:12 14.38180 121.15517 8008 ft 239 kts 179°
2026-04-26 15:13 14.36532 121.15640 8002 ft 242 kts 179°
2026-04-26 15:13 14.34861 121.15771 8003 ft 238 kts 179°
2026-04-26 15:13 14.33229 121.15901 7997 ft 230 kts 179°
2026-04-26 15:13 14.31674 121.16026 7998 ft 219 kts 179°
2026-04-26 15:14 14.30151 121.16145 8002 ft 221 kts 179°
2026-04-26 15:14 14.28613 121.16264 8006 ft 228 kts 179°
2026-04-26 15:14 14.26998 121.16393 8010 ft 230 kts 179°
2026-04-26 15:14 14.25432 121.16510 7998 ft 223 kts 179°
2026-04-26 15:15 14.23904 121.16628 7999 ft 218 kts 179°
2026-04-26 15:15 14.22412 121.16746 8001 ft 214 kts 179°
2026-04-26 15:15 14.20941 121.16857 8000 ft 212 kts 179°
2026-04-26 15:15 14.19457 121.16981 8001 ft 212 kts 179°
2026-04-26 15:16 14.18009 121.17100 8004 ft 211 kts 179°
2026-04-26 15:16 14.16517 121.17210 8006 ft 215 kts 179°
2026-04-26 15:16 14.15021 121.17313 8006 ft 217 kts 179°
2026-04-26 15:16 14.13513 121.17419 8004 ft 219 kts 179°
2026-04-26 15:17 14.11991 121.17538 8003 ft 221 kts 178°
2026-04-26 15:17 14.10961 121.17618 8004 ft 222 kts 178°
2026-04-26 15:17 14.08898 121.17786 8004 ft 225 kts 178°
2026-04-26 15:17 14.07353 121.17910 8006 ft 227 kts 179°
2026-04-26 15:18 14.05768 121.18036 8004 ft 229 kts 178°
2026-04-26 15:18 14.04177 121.18150 8004 ft 228 kts 178°
2026-04-26 15:18 14.02598 121.18271 8002 ft 229 kts 179°
2026-04-26 15:18 14.01010 121.18398 8004 ft 229 kts 178°
2026-04-26 15:19 13.99412 121.18521 8001 ft 230 kts 178°
2026-04-26 15:19 13.97827 121.18648 8003 ft 230 kts 179°
2026-04-26 15:19 13.96227 121.18775 8001 ft 231 kts 178°
2026-04-26 15:19 13.94626 121.18878 7994 ft 230 kts 187°
2026-04-26 15:20 13.93139 121.18417 8015 ft 225 kts 202°
2026-04-26 15:20 13.91656 121.17876 8003 ft 226 kts 201°
2026-04-26 15:20 13.90174 121.17333 8003 ft 226 kts 201°
2026-04-26 15:20 13.88691 121.16806 8002 ft 226 kts 201°
2026-04-26 15:21 13.87213 121.16279 8006 ft 226 kts 201°
2026-04-26 15:21 13.85726 121.15746 8003 ft 226 kts 200°
2026-04-26 15:21 13.84238 121.15230 8002 ft 226 kts 201°
2026-04-26 15:21 13.82751 121.14706 8006 ft 226 kts 201°
2026-04-26 15:22 13.81293 121.14185 8003 ft 227 kts 201°
2026-04-26 15:22 13.79772 121.13649 8006 ft 229 kts 201°
2026-04-26 15:22 13.78245 121.13091 8009 ft 237 kts 201°
2026-04-26 15:22 13.76667 121.12532 8007 ft 242 kts 201°
2026-04-26 15:23 13.75074 121.11973 8005 ft 245 kts 201°
2026-04-26 15:23 13.73462 121.11395 8007 ft 247 kts 201°
2026-04-26 15:23 13.71847 121.10812 8004 ft 248 kts 200°
2026-04-26 15:23 13.70211 121.10220 8004 ft 248 kts 200°
2026-04-26 15:24 13.68603 121.09647 8003 ft 248 kts 200°
2026-04-26 15:24 13.66964 121.09076 8002 ft 249 kts 200°
2026-04-26 15:24 13.65328 121.08504 8003 ft 249 kts 200°
2026-04-26 15:24 13.63694 121.07917 8004 ft 249 kts 201°
2026-04-26 15:25 13.62068 121.07336 8000 ft 242 kts 200°
2026-04-26 15:25 13.61031 121.06964 7996 ft 236 kts 200°
2026-04-26 15:25 13.58989 121.06247 7999 ft 230 kts 201°
2026-04-26 15:25 13.57497 121.05717 8001 ft 227 kts 201°
2026-04-26 15:26 13.56004 121.05189 8001 ft 225 kts 201°
2026-04-26 15:26 13.54550 121.04659 8003 ft 224 kts 200°
2026-04-26 15:26 13.53072 121.04131 8002 ft 223 kts 200°
2026-04-26 15:26 13.51613 121.03612 8002 ft 222 kts 200°
2026-04-26 15:27 13.50095 121.03517 7988 ft 227 kts 166°
2026-04-26 15:27 13.48725 121.04352 8018 ft 229 kts 148°
2026-04-26 15:27 13.47414 121.05283 8005 ft 229 kts 148°
2026-04-26 15:27 13.46106 121.06202 8003 ft 229 kts 148°
2026-04-26 15:28 13.44789 121.07126 8003 ft 229 kts 148°
2026-04-26 15:28 13.43480 121.08041 8003 ft 229 kts 148°
2026-04-26 15:28 13.42156 121.08968 8004 ft 230 kts 148°
2026-04-26 15:28 13.40836 121.09892 8001 ft 231 kts 148°
2026-04-26 15:29 13.39513 121.10820 8005 ft 231 kts 148°
2026-04-26 15:29 13.38184 121.11751 8004 ft 231 kts 148°
2026-04-26 15:29 13.35533 121.13610 8001 ft 231 kts 149°
2026-04-26 15:30 13.32882 121.15471 8003 ft 231 kts 149°
2026-04-26 15:30 13.31546 121.16408 8003 ft 232 kts 149°
2026-04-26 15:30 13.30215 121.17342 8003 ft 232 kts 149°
2026-04-26 15:31 13.28881 121.18278 8004 ft 232 kts 149°
2026-04-26 15:31 13.26242 121.20129 8003 ft 232 kts 149°
2026-04-26 15:31 13.24909 121.21064 8004 ft 231 kts 149°
2026-04-26 15:32 13.23140 121.22304 8000 ft 231 kts 149°
2026-04-26 15:32 13.20957 121.23834 8346 ft 226 kts 149°
2026-04-26 15:32 13.19655 121.24745 8726 ft 233 kts 149°
2026-04-26 15:33 13.18326 121.25682 8998 ft 231 kts 149°
2026-04-26 15:33 13.16993 121.26615 9003 ft 232 kts 149°
2026-04-26 15:33 13.15657 121.27549 9006 ft 236 kts 149°
2026-04-26 15:33 13.14284 121.28506 9005 ft 240 kts 149°
2026-04-26 15:34 13.12904 121.29472 9006 ft 242 kts 149°
2026-04-26 15:34 13.11514 121.30447 9004 ft 243 kts 149°
2026-04-26 15:34 13.10123 121.31418 9003 ft 244 kts 149°
2026-04-26 15:34 13.08723 121.32396 9001 ft 244 kts 149°
2026-04-26 15:35 13.07313 121.33383 9005 ft 243 kts 148°
2026-04-26 15:35 13.05927 121.34351 9002 ft 244 kts 148°
2026-04-26 15:35 13.04516 121.35338 9006 ft 243 kts 148°
2026-04-26 15:35 13.03130 121.36307 9002 ft 242 kts 148°
2026-04-26 15:36 13.01738 121.37281 9002 ft 242 kts 148°
2026-04-26 15:36 13.00357 121.38247 9003 ft 241 kts 148°
2026-04-26 15:36 12.98976 121.39211 9002 ft 241 kts 148°
2026-04-26 15:36 12.97598 121.40176 9002 ft 240 kts 148°
2026-04-26 15:37 12.96217 121.41140 9003 ft 240 kts 148°
2026-04-26 15:37 12.94843 121.42100 9004 ft 239 kts 148°
2026-04-26 15:37 12.93477 121.43057 9001 ft 239 kts 148°
2026-04-26 15:37 12.92103 121.44022 9001 ft 239 kts 148°
2026-04-26 15:38 12.90721 121.44991 9004 ft 239 kts 148°
2026-04-26 15:38 12.89353 121.45948 9003 ft 238 kts 148°
2026-04-26 15:38 12.88002 121.46894 9005 ft 238 kts 148°
2026-04-26 15:38 12.86617 121.47863 9003 ft 238 kts 148°
2026-04-26 15:39 12.85261 121.48814 9004 ft 239 kts 148°
2026-04-26 15:39 12.83892 121.49770 9004 ft 239 kts 148°
2026-04-26 15:39 12.82531 121.50723 9004 ft 239 kts 148°
2026-04-26 15:39 12.81599 121.51374 9004 ft 239 kts 148°
2026-04-26 15:40 12.79772 121.52650 9004 ft 239 kts 148°
2026-04-26 15:40 12.78396 121.53611 9003 ft 239 kts 148°
2026-04-26 15:40 12.77026 121.54568 9006 ft 239 kts 148°
2026-04-26 15:40 12.75663 121.55518 9004 ft 239 kts 148°
2026-04-26 15:41 12.74276 121.56486 9004 ft 239 kts 148°
2026-04-26 15:41 12.72914 121.57436 9004 ft 239 kts 148°
2026-04-26 15:41 12.71541 121.58395 9003 ft 239 kts 148°
2026-04-26 15:41 12.70174 121.59349 9004 ft 239 kts 148°
2026-04-26 15:42 12.68804 121.60304 9004 ft 239 kts 148°
2026-04-26 15:42 12.67438 121.61259 9003 ft 239 kts 148°
2026-04-26 15:42 12.66064 121.62217 9004 ft 239 kts 148°
2026-04-26 15:42 12.65037 121.62933 9007 ft 246 kts 148°
2026-04-26 15:43 12.64721 121.63152 9002 ft 248 kts 148°
2026-04-26 15:43 12.63296 121.64142 9001 ft 248 kts 148°
2026-04-26 15:43 12.60449 121.66129 9003 ft 248 kts 148°
2026-04-26 15:44 12.59019 121.67126 9002 ft 248 kts 148°
2026-04-26 15:44 12.56177 121.69108 9003 ft 248 kts 148°
2026-04-26 15:44 12.54749 121.70103 9002 ft 248 kts 148°
2026-04-26 15:45 12.51901 121.72087 9003 ft 248 kts 148°
2026-04-26 15:45 12.50474 121.73080 9002 ft 250 kts 148°
2026-04-26 15:46 12.47493 121.75151 9004 ft 264 kts 148°
2026-04-26 15:46 12.45956 121.76218 9004 ft 264 kts 148°
2026-04-26 15:46 12.44439 121.77276 9002 ft 265 kts 148°
2026-04-26 15:46 12.43440 121.77972 9001 ft 266 kts 148°
2026-04-26 15:47 12.41399 121.79394 9004 ft 266 kts 148°
2026-04-26 15:47 12.38350 121.81516 9004 ft 266 kts 148°
2026-04-26 15:47 12.36823 121.82571 9000 ft 265 kts 149°
2026-04-26 15:48 12.35164 121.83353 9007 ft 263 kts 158°
2026-04-26 15:48 12.33475 121.84100 9001 ft 264 kts 159°
2026-04-26 15:48 12.31803 121.84834 9003 ft 264 kts 159°
2026-04-26 15:48 12.30094 121.85580 9004 ft 264 kts 159°
2026-04-26 15:49 12.28418 121.86311 9002 ft 264 kts 159°
2026-04-26 15:49 12.26730 121.87049 9003 ft 264 kts 159°
2026-04-26 15:49 12.25064 121.87777 9002 ft 263 kts 159°
2026-04-26 15:49 12.23361 121.88522 9002 ft 264 kts 159°
2026-04-26 15:50 12.21680 121.89257 9002 ft 264 kts 159°
2026-04-26 15:50 12.19996 121.89994 9002 ft 264 kts 159°
2026-04-26 15:50 12.18325 121.90723 9003 ft 264 kts 159°
2026-04-26 15:50 12.16621 121.91466 9001 ft 264 kts 159°
2026-04-26 15:51 12.14950 121.92195 9004 ft 264 kts 159°
2026-04-26 15:51 12.13248 121.92937 9002 ft 264 kts 159°
2026-04-26 15:51 12.11569 121.93668 9001 ft 264 kts 159°
2026-04-26 15:51 12.09875 121.94407 8999 ft 264 kts 159°
2026-04-26 15:52 12.08186 121.95145 8999 ft 265 kts 159°
2026-04-26 15:52 12.06513 121.95874 8998 ft 264 kts 159°
2026-04-26 15:52 12.04810 121.96614 8998 ft 264 kts 159°
2026-04-26 15:52 12.03697 121.97098 8996 ft 264 kts 159°
2026-04-26 15:53 12.01456 121.98073 8995 ft 263 kts 159°
2026-04-26 15:53 11.99758 121.98817 8995 ft 264 kts 159°
2026-04-26 15:53 11.98080 121.99548 8993 ft 264 kts 159°
2026-04-26 15:53 11.96401 122.00279 8990 ft 264 kts 159°
2026-04-26 15:54 11.94680 122.01014 8984 ft 268 kts 158°
2026-04-26 15:54 11.92977 122.01752 8990 ft 271 kts 158°
2026-04-26 15:54 11.91215 122.02520 8987 ft 274 kts 158°
2026-04-26 15:54 11.89479 122.03281 8983 ft 275 kts 158°
2026-04-26 15:55 11.87723 122.04050 8980 ft 276 kts 158°
2026-04-26 15:55 11.85942 122.04829 8978 ft 276 kts 158°
2026-04-26 15:55 11.84199 122.05590 8977 ft 276 kts 158°
2026-04-26 15:55 11.82418 122.06367 8976 ft 276 kts 158°
2026-04-26 15:56 11.80670 122.07128 8976 ft 276 kts 158°
2026-04-26 15:56 11.78887 122.07903 8976 ft 276 kts 158°
2026-04-26 15:56 11.77135 122.08665 8976 ft 276 kts 158°
2026-04-26 15:56 11.75379 122.09428 8976 ft 276 kts 158°
2026-04-26 15:57 11.73598 122.10201 8976 ft 276 kts 158°
2026-04-26 15:57 11.71849 122.10961 8976 ft 276 kts 158°
2026-04-26 15:57 11.70065 122.11737 8976 ft 276 kts 158°
2026-04-26 15:57 11.68900 122.12243 8976 ft 276 kts 158°
2026-04-26 15:58 11.66552 122.13263 8976 ft 276 kts 158°
2026-04-26 15:58 11.64768 122.14038 8976 ft 276 kts 158°
2026-04-26 15:58 11.63010 122.14802 8976 ft 276 kts 158°
2026-04-26 15:58 11.61242 122.15569 8976 ft 276 kts 158°
2026-04-26 15:59 11.59477 122.16336 8976 ft 276 kts 158°
2026-04-26 15:59 11.57711 122.17103 8976 ft 276 kts 158°
2026-04-26 15:59 11.55944 122.17870 8976 ft 276 kts 158°
2026-04-26 15:59 11.54184 122.18634 8976 ft 276 kts 158°
2026-04-26 16:00 11.52407 122.19405 8976 ft 276 kts 158°
2026-04-26 16:00 11.50650 122.20167 8976 ft 276 kts 158°
2026-04-26 16:00 11.48890 122.20932 8976 ft 276 kts 158°
2026-04-26 16:00 11.47107 122.21705 8976 ft 276 kts 158°
2026-04-26 16:01 11.45355 122.22465 8976 ft 276 kts 158°
2026-04-26 16:01 11.43582 122.23234 8976 ft 277 kts 158°
2026-04-26 16:01 11.41822 122.23998 8977 ft 277 kts 158°
2026-04-26 16:01 11.40039 122.24770 8977 ft 277 kts 158°
2026-04-26 16:02 11.38293 122.25527 8977 ft 277 kts 158°
2026-04-26 16:02 11.36518 122.26297 8977 ft 277 kts 158°
2026-04-26 16:02 11.34758 122.27060 8977 ft 277 kts 158°
2026-04-26 16:02 11.33583 122.27570 8977 ft 277 kts 158°
2026-04-26 16:03 11.31209 122.28598 8977 ft 277 kts 158°
2026-04-26 16:03 11.29447 122.29361 8977 ft 277 kts 158°
2026-04-26 16:03 11.27675 122.30129 8977 ft 277 kts 158°
2026-04-26 16:03 11.25928 122.30886 8977 ft 277 kts 158°
2026-04-26 16:04 11.24142 122.31660 8977 ft 277 kts 158°
2026-04-26 16:04 11.22383 122.32421 8977 ft 277 kts 158°
2026-04-26 16:04 11.20615 122.33186 8977 ft 277 kts 158°
2026-04-26 16:04 11.18841 122.33955 8977 ft 277 kts 158°
2026-04-26 16:05 11.17204 122.34928 8954 ft 279 kts 136°
2026-04-26 16:05 11.16264 122.36654 8970 ft 279 kts 102°
2026-04-26 16:05 11.16191 122.38528 8976 ft 251 kts 88°
2026-04-26 16:05 11.16208 122.40234 8965 ft 238 kts 88°
2026-04-26 16:06 11.16229 122.41891 8969 ft 229 kts 88°
2026-04-26 16:06 11.16255 122.43510 8767 ft 228 kts 88°
2026-04-26 16:06 11.16274 122.45120 8521 ft 227 kts 89°
2026-04-26 16:06 11.16287 122.46716 8271 ft 224 kts 89°
2026-04-26 16:07 11.16299 122.48286 8021 ft 221 kts 89°
2026-04-26 16:08 11.13074 122.52337 6978 ft 192 kts 190°
2026-04-26 16:08 11.11365 122.52118 6963 ft 179 kts 188°
2026-04-26 16:08 11.10146 122.51984 6964 ft 172 kts 188°
2026-04-26 16:09 11.08959 122.51859 6766 ft 173 kts 187°
2026-04-26 16:09 11.07763 122.51735 6517 ft 173 kts 187°
2026-04-26 16:09 11.06568 122.51613 6270 ft 173 kts 187°
2026-04-26 16:09 11.05384 122.51493 6031 ft 173 kts 187°
2026-04-26 16:10 11.04221 122.51347 5957 ft 162 kts 195°
2026-04-26 16:10 11.03141 122.51160 5962 ft 155 kts 187°
2026-04-26 16:10 11.02061 122.51044 5978 ft 159 kts 187°
2026-04-26 16:10 11.00944 122.50925 5978 ft 163 kts 187°
2026-04-26 16:11 10.99815 122.50807 5977 ft 166 kts 187°
2026-04-26 16:11 10.98653 122.50687 5976 ft 168 kts 187°
2026-04-26 16:11 10.97493 122.50569 5975 ft 169 kts 187°
2026-04-26 16:11 10.96326 122.50452 5975 ft 170 kts 187°
2026-04-26 16:12 10.95148 122.50334 5972 ft 169 kts 187°
2026-04-26 16:12 10.93969 122.50217 5974 ft 170 kts 187°
2026-04-26 16:12 10.91602 122.49985 5974 ft 172 kts 187°
2026-04-26 16:13 10.90410 122.49868 5974 ft 173 kts 187°
2026-04-26 16:13 10.89212 122.49751 5973 ft 173 kts 187°
2026-04-26 16:13 10.88014 122.49635 5973 ft 173 kts 187°
2026-04-26 16:13 10.86817 122.49519 5972 ft 173 kts 187°
2026-04-26 16:14 10.85618 122.49403 5972 ft 174 kts 187°
2026-04-26 16:14 10.84416 122.49287 5950 ft 173 kts 186°
2026-04-26 16:14 10.82145 122.49593 5941 ft 171 kts 133°
2026-04-26 16:15 10.81768 122.50703 5962 ft 169 kts 80°
2026-04-26 16:15 10.82381 122.51665 5997 ft 166 kts 28°
2026-04-26 16:15 10.83463 122.51791 5967 ft 163 kts 351°
2026-04-26 16:16 10.85721 122.51496 5963 ft 164 kts 352°
2026-04-26 16:16 10.86851 122.51374 5976 ft 164 kts 353°
2026-04-26 16:16 10.87983 122.51259 5955 ft 165 kts 353°
2026-04-26 16:16 10.89128 122.51150 5945 ft 163 kts 353°
2026-04-26 16:17 10.90239 122.51000 5966 ft 162 kts 338°
2026-04-26 16:17 10.90985 122.50191 5972 ft 161 kts 285°
2026-04-26 16:17 10.90772 122.49096 6006 ft 167 kts 234°
2026-04-26 16:17 10.89756 122.48557 5984 ft 172 kts 182°
2026-04-26 16:18 10.88583 122.48719 5988 ft 171 kts 173°
2026-04-26 16:18 10.86213 122.48963 5967 ft 171 kts 177°
2026-04-26 16:19 10.83833 122.49163 5965 ft 171 kts 174°
2026-04-26 16:19 10.82660 122.49293 5917 ft 168 kts 175°
2026-04-26 16:19 10.80370 122.49536 5456 ft 170 kts 175°
2026-04-26 16:20 10.79205 122.49684 5176 ft 163 kts 172°
2026-04-26 16:20 10.76954 122.49957 4373 ft 166 kts 174°
2026-04-26 16:20 10.75821 122.50081 4043 ft 161 kts 174°
2026-04-26 16:21 10.74722 122.50192 3675 ft 161 kts 175°
2026-04-26 16:21 10.73610 122.50300 3457 ft 156 kts 175°
2026-04-26 16:21 10.72553 122.50394 3464 ft 152 kts 174°
2026-04-26 16:21 10.71499 122.50497 3453 ft 152 kts 173°
2026-04-26 16:22 10.70437 122.50620 3420 ft 153 kts 172°
2026-04-26 16:22 10.69392 122.50746 3458 ft 152 kts 172°
2026-04-26 16:22 10.68350 122.50874 3459 ft 151 kts 172°
2026-04-26 16:22 10.67297 122.50987 3442 ft 152 kts 173°
2026-04-26 16:23 10.66240 122.51089 3435 ft 154 kts 173°
2026-04-26 16:23 10.65172 122.51188 3459 ft 153 kts 177°
2026-04-26 16:23 10.64113 122.51084 3447 ft 155 kts 193°
2026-04-26 16:23 10.63119 122.50688 3438 ft 154 kts 211°
2026-04-26 16:24 10.62257 122.50045 3467 ft 151 kts 224°
2026-04-26 16:24 10.61591 122.49232 3422 ft 151 kts 239°
2026-04-26 16:24 10.61139 122.48257 3379 ft 149 kts 254°
2026-04-26 16:24 10.60929 122.47273 3404 ft 141 kts 266°
2026-04-26 16:25 10.60924 122.46268 3442 ft 147 kts 279°
2026-04-26 16:25 10.61156 122.45302 3489 ft 142 kts 294°
2026-04-26 16:25 10.61646 122.44443 3456 ft 141 kts 316°
2026-04-26 16:25 10.62432 122.43907 3453 ft 133 kts 338°
2026-04-26 16:26 10.63303 122.43642 3470 ft 132 kts 350°
2026-04-26 16:26 10.64222 122.43510 3477 ft 133 kts 356°
2026-04-26 16:26 10.65157 122.43466 3494 ft 135 kts 359°
2026-04-26 16:26 10.66091 122.43443 3460 ft 134 kts
2026-04-26 16:27 10.67009 122.43604 3328 ft 140 kts 17°
2026-04-26 16:27 10.67918 122.43902 3178 ft 133 kts 18°
2026-04-26 16:27 10.68775 122.44215 3136 ft 130 kts 21°
2026-04-26 16:27 10.69570 122.44553 2990 ft 120 kts 23°
2026-04-26 16:28 10.70343 122.44889 2788 ft 120 kts 21°
2026-04-26 16:28 10.71127 122.45119 2609 ft 118 kts 15°
2026-04-26 16:28 10.71930 122.45350 2446 ft 121 kts 17°
2026-04-26 16:28 10.72738 122.45593 2199 ft 123 kts 17°
2026-04-26 16:29 10.73535 122.45821 1943 ft 121 kts 17°
2026-04-26 16:29 10.74331 122.46069 1764 ft 115 kts 18°
2026-04-26 16:29 10.75080 122.46316 1538 ft 116 kts 20°
2026-04-26 16:29 10.75840 122.46596 1373 ft 119 kts 21°
2026-04-26 16:30 10.76605 122.46873 1237 ft 116 kts 21°
2026-04-26 16:30 10.77366 122.47133 1086 ft 116 kts 19°
2026-04-26 16:30 10.78129 122.47398 929 ft 116 kts 21°
2026-04-26 16:30 10.78885 122.47659 773 ft 116 kts 20°
2026-04-26 16:31 10.79651 122.47950 643 ft 117 kts 23°
2026-04-26 16:31 10.80414 122.48254 606 ft 119 kts 22°
2026-04-26 16:31 10.81168 122.48537 458 ft 112 kts 22°
2026-04-26 16:31 10.81903 122.48814 240 ft 115 kts 21°
2026-04-26 16:32 10.82624 122.49083 135 ft 104 kts 21°
2026-04-26 16:32 10.83039 122.49239 133 ft 84 kts 21°
2026-04-26 16:32 10.83442 122.49392 136 ft 41 kts 23°
2026-04-26 16:32 10.83549 122.49427 136 ft 14 kts 20°
2026-04-26 16:33 10.83556 122.49429 136 ft 0 kts 20°